Overview Statistics Trail Chart Weather Telemetry Raw packets
 

This is the latest recevied weather packets stored in our database for station/object IU3NMQ-10. If no packets are shown the sender has not sent any weather packets the latest 10 day(s).

<< 6 7 8 9 10 11 12 >>
Time Temp. Humidity Pressure Rain* Wind** Luminosity Snow
1788037376 26.11° C 62% 1011.1 hPa - - - -
1788036476 26.11° C 62% 1011 hPa - - - -
1788035576 26.11° C 63% 1011 hPa - - - -
1788034676 26.11° C 62% 1010.9 hPa - - - -
1788033776 26.67° C 60% 1010.9 hPa - - - -
1788032876 26.67° C 59% 1010.7 hPa - - - -
1788031976 26.67° C 59% 1010.6 hPa - - - -
1788031075 27.22° C 58% 1010.5 hPa - - - -
1788030175 27.22° C 57% 1010.4 hPa - - - -
1788029275 27.22° C 57% 1010.2 hPa - - - -
1788028375 27.78° C 56% 1010 hPa - - - -
1788027475 27.78° C 56% 1009.8 hPa - - - -
1788026575 27.78° C 55% 1009.7 hPa - - - -
1788025675 27.78° C 54% 1009.6 hPa - - - -
1788024775 28.33° C 53% 1009.6 hPa - - - -
1788023874 28.33° C 53% 1009.4 hPa - - - -
1788022971 28.33° C 54% 1009.5 hPa - - - -
1788022070 28.89° C 54% 1009.5 hPa - - - -
1788021174 28.89° C 55% 1009.6 hPa - - - -
1788020270 29.44° C 55% 1009.6 hPa - - - -
1788019370 30° C 55% 1009.7 hPa - - - -
1788018470 31.67° C 53% 1009.6 hPa - - - -
1788017570 32.78° C 51% 1009.2 hPa - - - -
1788016670 33.33° C 51% 1009 hPa - - - -
1788015770 33.33° C 51% 1009 hPa - - - -

* Rain since midnight (hover to see other rain measurements)
** Current wind speed in m/s (hover to see current wind gust speed)